User: anonymous
Location: Weston
(26.1283°N, 80.4075°W)
Time: 03:19:52
(UTC-04:00)
Language:

H-2A R/B - Orbit

View from above orbital plane
View from above orbital plane
View from above satellite
View from above satellite

Ground track
Ground track

The orbit data is extracted from the following two-line orbital elements,

1 26899U 01038B   14201.57169896  .00000374  00000-0  18188-3 0   179
2 26899 028.0297 133.9534 7134093 209.3468 023.8046 02.43727321110344
Epoch (UTC): 20 July 2014 13:43:14
Eccentricity: 0.7134093
inclination: 28.0297°
perigee height: 306 km
apogee height: 33585 km
right ascension of ascending node: 133.9534°
argument of perigee: 209.3468°
revolutions per day: 2.43727321
mean anomaly at epoch: 23.8046°
orbit number at epoch: 11034

The dashed part of the orbit path shows where the satellite is in the earth's shadow,  

DLR